This is the latest recevied weather packets stored in our database for station/object DM4XI-13. If no packets are shown the sender has not sent any weather packets the latest 10 day(s).
| Time | Temp. | Humidity | Pressure | Rain* | Wind** | Luminosity | Snow |
|---|---|---|---|---|---|---|---|
| 1777872898 | 15° C | 63% | 1012.6 hPa | 0 mm | 0 m/s | 66 W/m² | - |
| 1777872837 | 15° C | 64% | 1012.7 hPa | 0 mm | 0 m/s | 65 W/m² | - |
| 1777872776 | 15° C | 64% | 1012.7 hPa | 0 mm | 0 m/s | 64 W/m² | - |
| 1777872715 | 15° C | 64% | 1012.6 hPa | 0 mm | 0 m/s | 62 W/m² | - |
| 1777872654 | 15° C | 64% | 1012.8 hPa | 0 mm | 0 m/s | 61 W/m² | - |
| 1777872593 | 15° C | 64% | 1012.7 hPa | 0 mm | 0.45 m/s, 212° | 59 W/m² | - |
| 1777872532 | 15° C | 64% | 1012.7 hPa | 0 mm | 0.45 m/s, 207° | 58 W/m² | - |
| 1777872471 | 15° C | 64% | 1012.6 hPa | 0 mm | 0 m/s | 57 W/m² | - |
| 1777872410 | 15° C | 64% | 1012.7 hPa | 0 mm | 0 m/s | 55 W/m² | - |
| 1777872349 | 15° C | 63% | 1012.7 hPa | 0 mm | 0 m/s | 54 W/m² | - |
| 1777872288 | 15° C | 62% | 1012.8 hPa | 0 mm | 0 m/s | 53 W/m² | - |
| 1777872227 | 15° C | 62% | 1012.7 hPa | 0 mm | 0 m/s | 53 W/m² | - |
| 1777872166 | 15° C | 62% | 1012.7 hPa | 0 mm | 0 m/s | 53 W/m² | - |
| 1777872105 | 15° C | 62% | 1012.7 hPa | 0 mm | 0.45 m/s, 225° | 52 W/m² | - |
| 1777872044 | 15° C | 62% | 1012.6 hPa | 0 mm | 0 m/s | 52 W/m² | - |
| 1777871983 | 15° C | 62% | 1012.6 hPa | 0 mm | 0.45 m/s, 211° | 52 W/m² | - |
| 1777871922 | 15° C | 62% | 1012.6 hPa | 0 mm | 0.45 m/s, 210° | 52 W/m² | - |
| 1777871861 | 15° C | 61% | 1012.6 hPa | 0 mm | 0 m/s | 52 W/m² | - |
| 1777871800 | 15° C | 61% | 1012.7 hPa | 0 mm | 0 m/s | 53 W/m² | - |
| 1777871738 | 15° C | 60% | 1012.7 hPa | 0 mm | 0 m/s | 58 W/m² | - |
| 1777871678 | 15° C | 61% | 1012.7 hPa | 0 mm | 0 m/s | 57 W/m² | - |
| 1777871617 | 14.44° C | 60% | 1012.8 hPa | 0 mm | 0 m/s | 56 W/m² | - |
| 1777871555 | 14.44° C | 60% | 1012.6 hPa | 0 mm | 0 m/s | 53 W/m² | - |
| 1777871495 | 14.44° C | 61% | 1012.5 hPa | 0 mm | 0 m/s | 52 W/m² | - |
| 1777871434 | 14.44° C | 61% | 1012.4 hPa | 0 mm | 0 m/s | 51 W/m² | - |
* Rain latest hour (hover to see other rain measurements)
** Current wind speed in m/s (hover to see current wind gust speed)